Погода в Пылемце

Россия / Ненецкий автономный округ     67°24′37″N   52°15′24″E
темп.,
°C
ветер,
м/с
пор.,
м/с
влажн.,
%
обл.,
%
осадки,
мм/ч
давл.,
гПа
погр.,
м
15 мая, сб
сб1500:00+2св6984100 0.1 1020428
03:000св6996100 1.1 1019365
06:000св5998100 1.8 1019384
09:00+2всв6890100 2.2 1019550
12:00+3в5783100 0.1 1019679
15:00+3в4681100 0.6 1019618
18:00+4вюв257663 0.1 1019536
21:00+1ссв477773 0.1 1019202
16 мая, вс
вс1600:00+1св477798 0.0 1019186
03:00+1всв587186 0.0 1018248
06:00+2всв5765100 0.0 1018334
09:00+4в5755100 0.0 1017541
12:00+5в5756100 0.0 1016553
15:00+6в5859100 0.0 1015547
18:00+5в5963100 0.0 1014313
21:00+5всв4964100 0.0 1013251
17 мая, пн
пн1700:00+5всв51062100 0.0 1013269
03:00+3всв61060100 0.0 1013293
06:00+4всв61059100 0.0 1013349
09:00+7всв6848100 0.0 1013570
12:00+9всв6745100 0.0 1014746
15:00+10всв664023 0.0 1014933
18:00+10св66375 0.0 1015877
21:00+4ссв59595 0.0 1017232
18 мая, вт
вт1800:00+1ссв58695 0.0 1019184
03:00+1св3670100 0.0 1020178
06:00+3св3454100 0.0 1021274
09:00+7в33355 0.0 1022520
12:00+10юв112785 0.0 1022799
15:00+12вюв222799 0.0 1022900
18:00+13юв332998 0.0 1021864
21:00+10юв4542100 0.0 102181
19 мая, ср
ср1900:00+9ююв4750100 0.0 1019112
03:00+9ююв51156100 0.0 1018211
06:00+11ююв7135793 0.0 1016370
09:00+16ю81157100 0.0 1013536
12:00+21ююз8104894 0.0 1011902
15:00+25ююз8114058 0.0 10091415
18:00+25юз611405 0.0 1007410
21:00+20ю513550 0.0 1006175